Weather History for Deer Park, WA

Change the Weather History Date:

Wednesday, April 10, 2013

  Actual Average Record
Temperature  
Mean Temperature 46 °F 44 °F  
Max Temperature 59 °F 56 °F 70 °F (2012)
Min Temperature 32 °F 32 °F 22 °F (2007)
Degree Days  
Heating Degree Days 19 21  
Month to date heating degree days 122 220  
Since 1 July heating degree days 6027 6427  
Cooling Degree Days 0 0  
Month to date cooling degree days 0 0  
Year to date cooling degree days 0 0  
Moisture  
Dew Point 38 °F    
Average Humidity 74    
Maximum Humidity 100    
Minimum Humidity 47    
Precipitation  
Precipitation 0.18 in 0.06 in 0.18 in (2013)
Month to date precipitation 1.02 0.68  
Year to date precipitation 4.50 7.00  
Sea Level Pressure  
Sea Level Pressure 29.97 in    
Wind  
Wind Speed 6 mph (South)    
Max Wind Speed 32 mph    
Max Gust Speed 40 mph    
Visibility 9 miles    
Events Rain    
T = Trace of Precipitation, MM = Missing Value Source: NWS Daily Summary

Daily Weather History Graph

Daily Weather History Graph

Search for Another Location

Airport:

Trip Planner

Search our weather history database for the weather conditions in past years. The results will help you decide how hot, cold, wet, or windy it might be!

Date:

Astronomy

Apr. 10, 2013 Rise Set
Actual Time 6:09 AM PDT 7:33 PM PDT
Civil Twilight 5:37 AM PDT 8:05 PM PDT
Nautical Twilight 4:58 AM PDT 8:44 PM PDT
Astronomical Twilight 4:16 AM PDT 9:26 PM PDT
Moon 6:05 AM PDT (4/10) 8:18 PM PDT (4/10)
Length of Visible Light 14h 28m
Length of Day
13h 23m
New Moon, 0% of the Moon is Illuminated
Apr 10
New Moon
Apr 18
First Quarter
Apr 25
Full
May 2
Last Quarter
May 9
New

Hourly Weather History & Observations

Time (PDT) Temp. Windchill Dew Point Humidity Pressure Visibility Wind Dir Wind Speed Gust Speed Precip Events Conditions
12:53 AM 43.0 °F - 37.0 °F 80% 30.20 in 10.0 mi Calm Calm - N/A   Overcast
1:53 AM 43.0 °F 41.3 °F 35.1 °F 74% 30.18 in 10.0 mi SE 3.5 mph - N/A   Overcast
2:53 AM 43.0 °F 40.3 °F 35.1 °F 74% 30.16 in 10.0 mi SSE 4.6 mph - N/A   Overcast
3:53 AM 44.1 °F 42.5 °F 36.0 °F 73% 30.15 in 10.0 mi SSE 3.5 mph - N/A   Overcast
4:53 AM 44.1 °F - 36.0 °F 73% 30.13 in 10.0 mi Calm Calm - N/A   Overcast
5:53 AM 43.0 °F - 35.1 °F 74% 30.10 in 10.0 mi Calm Calm - N/A   Overcast
6:53 AM 44.1 °F 42.5 °F 35.1 °F 71% 30.09 in 10.0 mi ESE 3.5 mph - N/A   Overcast
7:53 AM 45.0 °F 42.6 °F 35.1 °F 68% 30.08 in 10.0 mi SSE 4.6 mph - N/A   Overcast
8:53 AM 46.0 °F 43.1 °F 35.1 °F 66% 30.05 in 10.0 mi SSE 5.8 mph - N/A   Overcast
9:53 AM 48.0 °F - 35.1 °F 61% 30.00 in 10.0 mi South 6.9 mph - N/A   Overcast
10:53 AM 48.0 °F - 36.0 °F 63% 29.96 in 10.0 mi South 10.4 mph - N/A   Overcast
11:53 AM 50.0 °F - 37.9 °F 63% 29.92 in 10.0 mi SSE 9.2 mph - N/A   Overcast
12:53 PM 51.1 °F - 39.9 °F 66% 29.88 in 10.0 mi South 12.7 mph 21.9 mph 0.00 in Rain Light Rain
1:10 PM 48.2 °F - 42.8 °F 82% 29.85 in 6.0 mi South 8.1 mph 19.6 mph 0.04 in Rain Rain
1:53 PM 48.9 °F - 44.1 °F 83% 29.86 in 7.0 mi South 10.4 mph - 0.10 in Rain Rain
2:53 PM 50.0 °F - 46.0 °F 86% 29.83 in 10.0 mi South 6.9 mph - 0.01 in   Overcast
3:10 PM 51.8 °F - 46.4 °F 82% 29.80 in 10.0 mi SSW 6.9 mph - N/A   Overcast
3:53 PM 57.9 °F - 46.9 °F 67% 29.78 in 10.0 mi WSW 8.1 mph - N/A   Mostly Cloudy
4:53 PM 57.0 °F - 39.9 °F 53% 29.79 in 10.0 mi West 17.3 mph 23.0 mph N/A   Mostly Cloudy
5:53 PM 57.9 °F - 37.9 °F 47% 29.81 in 10.0 mi WSW 15.0 mph 23.0 mph N/A   Mostly Cloudy
6:29 PM 46.4 °F 37.9 °F 41.0 °F 81% 29.85 in 2.5 mi NW 25.3 mph 40.3 mph 0.03 in Rain Heavy Rain
6:42 PM 48.2 °F - 39.2 °F 71% 29.86 in 3.0 mi NW 15.0 mph 25.3 mph 0.05 in Rain Rain
6:53 PM 48.9 °F - 39.9 °F 71% 29.87 in 4.0 mi SSW 12.7 mph 24.2 mph 0.07 in Rain Light Rain
7:53 PM 45.0 °F 42.6 °F 39.9 °F 82% 29.92 in 10.0 mi WNW 4.6 mph - 0.00 in   Clear
8:53 PM 39.0 °F 32.8 °F 37.0 °F 93% 29.98 in 8.0 mi North 9.2 mph - N/A   Clear
9:53 PM 37.9 °F - 37.0 °F 97% 30.00 in 10.0 mi Calm Calm - N/A   Clear
10:53 PM 36.0 °F - 35.1 °F 97% 30.02 in 9.0 mi Calm Calm - N/A   Clear
11:53 PM 37.0 °F - 36.0 °F 96% 30.03 in 10.0 mi Calm Calm - N/A   Clear